Regional Weather Roundup
Issued by NWS

Home | Current Version | Previous Version | Graphics & Text | Print | Product List | Glossary On
Versions: 1 2 3 4 5 6 7 8 9 10 11 12 13 14 15 16 17 18 19 20 21 22 23 24 25 26 27 28 29 30 31 32 33 34 35 36 37 38 39 40 41 42 43 44 45 46 47 48 49 50
000
ASUS43 KMKX 290900
RWRWI

WISCONSIN REGIONAL WEATHER ROUNDUP
NATIONAL WEATHER SERVICE MILWAUKEE/SULLIVAN WI
400 AM CDT THU SEP 29 2016

NOTE: "FAIR" INDICATES FEW OR NO CLOUDS BELOW 12,000 FEET WITH NO
SIGNIFICANT WEATHER AND/OR OBSTRUCTIONS TO VISIBILITY.

WIZ001-002-006>008-014>016-023>028-291000-
NORTHWEST WISCONSIN

CITY           SKY/WX    TMP DP  RH WIND       PRES   REMARKS
SUPERIOR ARPT  CLOUDY    49  49 100 CALM      30.44S
ASHLAND        CLEAR     48  48 100 NE6       30.44R
HAYWARD        CLOUDY    49  48  97 CALM      30.42S
SIREN          CLEAR     41  41  99 CALM      30.43R FOG
CUMBERLAND     CLEAR     45  45 100 N6        30.40S
RICE LAKE      MOCLDY    48  47  95 N5        30.41S
CHETEK         NOT AVBL
LADYSMITH      CLOUDY    48  47  97 N7        30.41R FOG
EAU CLAIRE     NOT AVBL
MENOMONIE      CLEAR     46  45  95 CALM      30.38S
NEW RICHMOND   CLEAR     45  45 100 CALM      30.40R
OSCEOLA        PTCLDY    45  45 100 CALM      30.43S
$$

WIZ003>005-009-010-017-018-291000-
NORTH CENTRAL WISCONSIN

CITY           SKY/WX    TMP DP  RH WIND       PRES   REMARKS
MANITOWISH WTR NOT AVBL
ARBOR VITAE    MOCLDY    52  51  95 NE5       30.39R
WOODRUFF       MOCLDY    52  51  95 NE5       30.39R
RHINELANDER    CLEAR     46  46 100 N3        30.38R
EAGLE RIVER    CLOUDY    46  46 100 CALM      30.39R FOG
LAND O LAKES   CLOUDY    48  48 100 N5        30.41R FOG
PHILLIPS       MOCLDY    47  47 100 N3        30.39R
TOMAHAWK       CLEAR     43  42  97 CALM      30.38R FOG
MEDFORD        CLEAR    N/A N/A N/A N5        30.36R
MERRILL        CLEAR     43  43 100 N5        30.37R
$$

WIZ029-030-035-036-043>047-291000-
CENTRAL WISCONSIN

CITY           SKY/WX    TMP DP  RH WIND       PRES   REMARKS
WAUSAU         CLEAR     49  46  90 NW5       30.34R
MOSINEE        CLEAR     46  46 100 NE7       30.34R
MARSHFIELD     CLEAR     50  46  86 N8        30.34R
STEVENS POINT  CLEAR     46  46 100 NE5       30.33S
WAUPACA        CLEAR     52  51  95 N5        30.31S
WAUTOMA        CLEAR     51  49  92 N12       30.30S
WISC RAPIDS    CLEAR     50  48  93 NE8       30.33S
CAMP DOUGLAS   NOT AVBL
$$

WIZ011>013-019>022-031-037>040-048>050-291000-
NORTHEAST WISCONSIN

CITY           SKY/WX    TMP DP  RH WIND       PRES   REMARKS
ANTIGO         CLEAR     47  47  99 NE8       30.34S
SHAWANO        PTCLDY    53  49  89 N7        30.32S
OCONTO         NOT AVBL
STURGEON BAY   PTCLDY    58  55  90 N12       30.29R
GREEN BAY      CLEAR     52  52 100 N13       30.29R
MANITOWOC      NOT AVBL
APPLETON       CLEAR     50  50 100 N14       30.27S
CLINTONVILLE   CLEAR     50  48  93 N9        30.31S
OSHKOSH        MOCLDY    54  50  86 N15       30.27R
$$

WIZ032>034-041-042-053>061-291000-
SOUTHWEST WISCONSIN

CITY           SKY/WX    TMP DP  RH WIND       PRES   REMARKS
LA CROSSE      CLEAR     54  51  90 N8        30.35R
SPARTA         CLEAR     44  44 100 NW3       30.34R
VIROQUA        CLEAR     50  50  99 NE9       30.31F
BOSCOBEL       CLOUDY    52  50  93 CALM      30.31R
PRAIRIE DU CHI CLEAR     52  47  84 CALM      30.30R
PLATTEVILLE    CLEAR     51  51 100 N13G21    30.25S
$$

WIZ056-057-062-063-064-067-068-291000-
SOUTH CENTRAL WISCONSIN

CITY           SKY/WX    TMP DP  RH WIND       PRES   REMARKS
REEDSBURG      NOT AVBL
BARABOO/DELLS  PTCLDY    49  48  94 N3        30.29S
LONE ROCK      NOT AVBL
MINERAL POINT  PTCLDY    52  50  93 N10G16    30.26S
MADISON        MOCLDY    52  50  93 N15       30.25R
MIDDLETON      MOCLDY    53  53  99 N9G16     30.26R
WATERTOWN      CLOUDY    55  55 100 N10G18    30.22R
MONROE         CLOUDY    52  52 100 N13G21    30.22S
JANESVILLE     CLOUDY    57  54  88 N12G20    30.18S
$$

WIZ051-052-058>065-066-070>072-291000-
SOUTHEAST WISCONSIN

CITY           SKY/WX    TMP DP  RH WIND       PRES   REMARKS
MILWAUKEE      MOCLDY    60  56  86 N20G37    30.16R
WAUKESHA       CLOUDY    55  54  94 N14G21    30.20R
MILWAUKEE/TIMM CLOUDY    59  54  82 N18G26    30.18S
RACINE         CLOUDY    57  55  93 N21G29    30.16R
BURLINGTON     MOCLDY    58  54  86 N14G20    30.15S
KENOSHA        MOCLDY    60  57  89 N10G23    30.13R
FOND DU LAC    CLOUDY    56  53  90 N14       30.27R
SHEBOYGAN      CLEAR     56  52  86 N9        30.22S
WEST BEND      CLOUDY    55  54  94 N10G18    30.21S
JUNEAU         CLOUDY    53  52  95 N14       30.25R
$$

LSZ147-162-291000-
LAKE SUPERIOR

STATION/POSITION TIME  TEMP    WIND        PRES    WAVE
                       AIR SEA DIR/SP/G            HT/PER
                 (UTC) (F)     (DEG/KT/KT) (MB)    (FT/S)
W MID LAKE BUOY  0650   56 54   50/ 10/ 12 1029.6R   1/ 5
DEVILS ISLAND    0800   54      20/  8/  8 1030.8R
SAXON HARBOR     0840   56      30/  9/ 11 1029.8R
$$

LMZ867-665-643>646-291000-
LAKE MICHIGAN

STATION/POSITION TIME  TEMP    WIND        PRES    WAVE
                       AIR SEA DIR/SP/G            HT/PER
                 (UTC) (F)     (DEG/KT/KT) (MB)    (FT/S)
CHAMBERS ISLAND  0800   58     350/ 19/ 25 1025.4R
N MID LAKE BUOY  0750   63 66   20/ 17/ 21 1024.5R   4/ 5
NORTHPORT PIER   0800   60      10/ 16/ 19 1025.7R
SISTER BAY       0708   58     360/ 15/ 18   N/A
KEWAUNEE LAKESHO 0800   57      10/ 12/ 19 1023.7R
SHEBOYGAN LAKESH 0800   57     360/ 22/ 24 1022.7R
PORT WASHINGTON  0800   60     360/ 11/ 20 1023.0R
ATWATER BUOY     0800   57 54   10/ 21/ 27 1020.8R
MILWAUKEE LAKESH 0810   58     360/ 24/ 29   N/A
S MID LAKE BUOY  0750   65 69   50/ 23/ 27 1017.9R   7/ 7
KENOSHA   LAKESH 0800   59      10/ 23/ 26 1019.6R
$$

TC  - TEMPERATURE IN CELSIUS
VSB - VISIBILITY IN STATUTE MILES
WCI - WIND CHILL INDEX
HX  - HEAT INDEX




USA.gov is the U.S. government's official web portal to all federal, state and local government web resources and services.